START_TIME,STEP,MOV.,P11,t_acc.,P23,t_acc.,P27,t_acc.,A4,t_acc.
1981-08-27 00:00:47.940 ,0,0,0.,4.8,0.,4.8,0.,4.8,0.,4.8
1981-08-27 00:00:52.740 ,0,0,0.,4.8,0.,4.8,0.,4.8,0.,4.8
1981-08-27 00:00:57.540 ,0,0,0.,4.8,0.,4.8,0.,4.8,0.,4.8
1981-08-27 00:01:02.340 ,0,0,0.,4.8,0.,4.8,0.,4.8,0.,4.8
1981-08-27 00:01:07.140 ,0,0,0.,4.8,0.,4.8,0.,4.8,0.,4.8
1981-08-27 00:01:11.940 ,0,0,0.,4.8,0.,4.8,0.,4.8,0.,4.8
1981-08-27 00:01:16.740 ,0,0,0.,4.8,0.,4.8,0.,4.8,0.,4.8
1981-08-27 00:01:21.540 ,0,0,0.,4.8,0.,4.8,0.,4.8,0.,4.8
1981-08-27 00:01:26.340 ,0,0,0.,4.8,0.,4.8,0.,4.8,0.,4.8
1981-08-27 00:01:31.140 ,0,0,0.,4.8,0.,4.8,0.,4.8,0.,4.8
1981-08-27 00:01:35.940 ,4,0,0.,4.8,0.,4.8,0.,4.8,0.,4.8
1981-08-27 00:01:40.740 ,4,0,0.,4.8,0.,4.8,0.,4.8,0.,4.8
1981-08-27 00:01:45.540 ,4,0,0.,4.8,0.,4.8,0.,4.8,0.,4.8
1981-08-27 00:01:50.340 ,4,0,0.,4.8,0.,4.8,0.,4.8,0.,4.8
1981-08-27 00:01:55.140 ,4,0,0.,4.8,0.,4.8,0.,4.8,0.,4.8
1981-08-27 00:01:59.940 ,4,0,0.,4.8,0.,4.8,0.,4.8,0.,4.8
1981-08-27 00:02:04.740 ,4,0,0.,4.8,0.,4.8,0.,4.8,0.,4.8
1981-08-27 00:02:09.540 ,4,0,0.,4.8,0.,4.8,0.,4.8,0.,4.8
1981-08-27 00:02:14.340 ,4,0,0.,4.8,0.,4.8,0.,4.8,0.,4.8
1981-08-27 00:02:19.140 ,4,0,0.,4.8,0.,4.8,0.,4.8,0.,4.8
1981-08-27 00:02:23.940 ,5,0,0.,4.8,0.,4.8,0.,4.8,0.,4.8
1981-08-27 00:02:28.740 ,5,0,0.,4.8,0.,4.8,0.,4.8,0.,4.8
1981-08-27 00:02:33.540 ,5,0,0.,4.8,0.,4.8,0.,4.8,0.,4.8
1981-08-27 00:02:38.340 ,5,0,0.,4.8,0.,4.8,0.,4.8,0.,4.8
1981-08-27 00:02:43.140 ,5,0,0.,4.8,0.,4.8,0.,4.8,0.,4.8
1981-08-27 00:02:47.940 ,5,0,0.,4.8,0.,4.8,0.,4.8,0.,4.8
1981-08-27 00:02:52.740 ,5,0,0.,4.8,0.,4.8,0.,4.8,0.,4.8
1981-08-27 00:02:57.540 ,5,0,0.,4.8,0.,4.8,0.,4.8,0.,4.8
1981-08-27 00:03:02.340 ,5,0,0.,4.8,0.,4.8,0.,4.8,0.,4.8
1981-08-27 00:03:07.140 ,5,0,0.,4.8,0.,4.8,0.,4.8,0.,4.8
1981-08-27 00:03:11.940 ,6,0,0.,4.8,0.,4.8,0.,4.8,0.,4.8
1981-08-27 00:03:16.740 ,6,0,0.,4.8,0.,4.8,0.,4.8,0.,4.8
1981-08-27 00:03:21.540 ,6,0,0.,4.8,0.,4.8,0.,4.8,0.,4.8
1981-08-27 00:03:26.340 ,6,0,0.,4.8,0.,4.8,0.,4.8,0.,4.8
1981-08-27 00:03:31.140 ,6,0,0.,4.8,0.,4.8,0.,4.8,0.,4.8
1981-08-27 00:03:35.940 ,6,0,0.,4.8,0.,4.8,0.,4.8,0.,4.8
1981-08-27 00:03:40.740 ,6,0,0.,4.8,0.,4.8,0.,4.8,0.,4.8
1981-08-27 00:03:45.540 ,6,0,0.,4.8,0.,4.8,0.,4.8,0.,4.8
1981-08-27 00:03:50.340 ,6,0,0.,4.8,0.,4.8,0.,4.8,0.,4.8
1981-08-27 00:03:55.140 ,6,0,0.,4.8,0.,4.8,0.,4.8,0.,4.8
1981-08-27 00:03:59.940 ,7,0,0.,4.8,0.,4.8,0.,4.8,0.,4.8
1981-08-27 00:04:04.740 ,7,0,0.,4.8,0.,4.8,0.,4.8,0.,4.8
1981-08-27 00:04:09.540 ,7,0,0.,4.8,0.,4.8,0.,4.8,0.,4.8
1981-08-27 00:04:14.340 ,7,0,0.,4.8,0.,4.8,0.,4.8,0.,4.8
1981-08-27 00:04:19.140 ,7,0,0.,4.8,0.,4.8,0.,4.8,0.,4.8
1981-08-27 00:04:23.940 ,7,0,0.,4.8,0.,4.8,0.,4.8,0.,4.8
1981-08-27 00:04:28.740 ,7,0,0.,4.8,0.,4.8,0.,4.8,0.,4.8
1981-08-27 00:04:33.540 ,7,0,0.,4.8,0.,4.8,0.,4.8,0.,4.8
1981-08-27 00:04:38.340 ,7,0,0.,4.8,0.,4.8,0.,4.8,0.,4.8
1981-08-27 00:04:43.140 ,7,0,0.,4.8,0.,4.8,0.,4.8,0.,4.8
1981-08-27 00:04:47.940 ,7,0,0.,4.8,0.,4.8,0.,4.8,0.,4.8
1981-08-27 00:04:52.740 ,7,0,0.,4.8,0.,4.8,0.,4.8,0.,4.8
1981-08-27 00:04:57.540 ,7,0,0.,4.8,0.,4.8,0.,4.8,0.,4.8
1981-08-27 00:05:02.340 ,7,0,0.,4.8,0.,4.8,0.,4.8,0.,4.8
1981-08-27 00:05:07.140 ,7,0,0.,4.8,0.,4.8,0.,4.8,0.,4.8
1981-08-27 00:05:11.940 ,7,0,0.,4.8,0.,4.8,0.,4.8,0.,4.8
1981-08-27 00:05:16.740 ,7,0,0.,4.8,0.,4.8,0.,4.8,0.,4.8
1981-08-27 00:05:21.540 ,7,0,0.,4.8,0.,4.8,0.,4.8,0.,4.8
1981-08-27 00:05:26.340 ,7,0,0.,4.8,0.,4.8,0.,4.8,0.,4.8
1981-08-27 00:05:31.140 ,7,0,0.,4.8,0.,4.8,0.,4.8,0.,4.8
1981-08-27 00:05:35.940 ,6,0,0.,4.8,0.,4.8,0.,4.8,0.,4.8
1981-08-27 00:05:40.740 ,6,0,0.,4.8,0.,4.8,0.,4.8,0.,4.8
1981-08-27 00:05:45.540 ,6,0,0.,4.8,0.,4.8,0.,4.8,0.,4.8
1981-08-27 00:05:50.340 ,6,0,0.,4.8,0.,4.8,0.,4.8,0.,4.8
1981-08-27 00:05:55.140 ,6,0,0.,4.8,0.,4.8,0.,4.8,0.,4.8
1981-08-27 00:05:59.940 ,6,0,0.,4.8,0.,4.8,0.,4.8,0.,4.8
1981-08-27 00:06:04.740 ,6,0,0.,4.8,0.,4.8,0.,4.8,0.,4.8
1981-08-27 00:06:09.540 ,6,0,0.,4.8,0.,4.8,0.,4.8,0.,4.8
1981-08-27 00:06:14.340 ,6,0,0.,4.8,0.,4.8,0.,4.8,0.,4.8
1981-08-27 00:06:19.140 ,6,0,0.,4.8,0.,4.8,0.,4.8,0.,4.8
1981-08-27 00:06:23.940 ,5,0,0.,4.8,0.,4.8,0.,4.8,0.,4.8
1981-08-27 00:06:28.740 ,5,0,0.,4.8,0.,4.8,0.,4.8,0.,4.8
1981-08-27 00:06:33.540 ,5,0,0.,4.8,0.,4.8,0.,4.8,0.,4.8
1981-08-27 00:06:38.340 ,5,0,0.,4.8,0.,4.8,0.,4.8,0.,4.8
1981-08-27 00:06:43.140 ,5,0,0.,4.8,0.,4.8,0.,4.8,0.,4.8
1981-08-27 00:06:47.940 ,5,0,0.,4.8,0.,4.8,0.,4.8,0.,4.8
1981-08-27 00:06:52.740 ,5,0,0.,4.8,0.,4.8,0.,4.8,0.,4.8
1981-08-27 00:06:57.540 ,5,0,0.,4.8,0.,4.8,0.,4.8,0.,4.8
1981-08-27 00:07:02.340 ,5,0,0.,4.8,0.,4.8,0.,4.8,0.,4.8
1981-08-27 00:07:07.140 ,5,0,0.,4.8,0.,4.8,0.,4.8,0.,4.8
1981-08-27 00:07:11.940 ,4,0,0.,4.8,0.,4.8,0.,4.8,0.,4.8
1981-08-27 00:07:16.740 ,4,0,0.,4.8,0.,4.8,0.,4.8,0.,4.8
1981-08-27 00:07:21.540 ,4,0,0.,4.8,0.,4.8,0.,4.8,0.,4.8
1981-08-27 00:07:26.340 ,4,0,0.,4.8,0.,4.8,0.,4.8,0.,4.8
1981-08-27 00:07:31.140 ,4,0,0.,4.8,0.,4.8,0.,4.8,0.,4.8
1981-08-27 00:07:35.940 ,4,0,0.,4.8,0.,4.8,0.,4.8,0.,4.8
1981-08-27 00:07:40.740 ,4,0,0.,4.8,0.,4.8,0.,4.8,0.,4.8
1981-08-27 00:07:45.540 ,4,0,0.,4.8,0.,4.8,0.,4.8,0.,4.8
1981-08-27 00:07:50.340 ,4,0,0.,4.8,0.,4.8,0.,4.8,0.,4.8
1981-08-27 00:07:55.140 ,4,0,0.,4.8,0.,4.8,0.,4.8,0.,4.8
1981-08-27 00:07:59.940 ,3,0,0.,4.8,0.,4.8,0.,4.8,0.,4.8
1981-08-27 00:08:04.740 ,3,0,0.,4.8,0.,4.8,0.,4.8,0.,4.8
1981-08-27 00:08:09.540 ,3,0,0.,4.8,0.,4.8,0.,4.8,0.,4.8
1981-08-27 00:08:14.340 ,3,0,0.,4.8,0.,4.8,0.,4.8,0.,4.8
1981-08-27 00:08:19.140 ,3,0,0.,4.8,0.,4.8,0.,4.8,0.,4.8
1981-08-27 00:08:23.940 ,3,0,0.,4.8,0.,4.8,0.,4.8,0.,4.8
1981-08-27 00:08:28.740 ,3,0,0.,4.8,0.,4.8,0.,4.8,0.,4.8
1981-08-27 00:08:33.540 ,3,0,0.,4.8,0.,4.8,0.,4.8,0.,4.8
1981-08-27 00:08:38.340 ,3,0,0.,4.8,0.,4.8,0.,4.8,0.,4.8
1981-08-27 00:08:43.140 ,3,0,0.,4.8,0.,4.8,0.,4.8,0.,4.8
1981-08-27 00:08:47.940 ,2,0,0.,4.8,0.,4.8,0.,4.8,0.,4.8
1981-08-27 00:08:52.740 ,2,0,0.,4.8,0.,4.8,0.,4.8,0.,4.8
1981-08-27 00:08:57.540 ,2,0,0.,4.8,0.,4.8,0.,4.8,0.,4.8
1981-08-27 00:09:02.340 ,2,0,0.,4.8,0.,4.8,0.,4.8,0.,4.8
1981-08-27 00:09:07.140 ,2,0,0.,4.8,0.,4.8,0.,4.8,0.,4.8
1981-08-27 00:09:11.940 ,2,0,0.,4.8,0.,4.8,0.,4.8,0.,4.8
1981-08-27 00:09:16.740 ,2,0,0.,4.8,0.,4.8,0.,4.8,0.,4.8
1981-08-27 00:09:21.540 ,2,0,0.,4.8,0.,4.8,0.,4.8,0.,4.8
1981-08-27 00:09:26.340 ,2,0,0.,4.8,0.,4.8,0.,4.8,0.,4.8
1981-08-27 00:09:31.140 ,2,0,0.,4.8,0.,4.8,0.,4.8,0.,4.8
1981-08-27 00:09:35.940 ,1,0,0.,4.8,0.,4.8,0.,4.8,0.,4.8
1981-08-27 00:09:40.740 ,1,0,0.,4.8,0.,4.8,0.,4.8,0.,4.8
1981-08-27 00:09:45.540 ,1,0,0.,4.8,0.,4.8,0.,4.8,0.,4.8
1981-08-27 00:09:50.340 ,1,0,0.,4.8,0.,4.8,0.,4.8,0.,4.8
1981-08-27 00:09:55.140 ,1,0,0.,4.8,0.,4.8,0.,4.8,0.,4.8
1981-08-27 00:09:59.940 ,1,0,0.,4.8,0.,4.8,0.,4.8,0.,4.8
1981-08-27 00:10:04.740 ,1,0,0.,4.8,0.,4.8,0.,4.8,0.,4.8
1981-08-27 00:10:09.540 ,1,0,0.,4.8,0.,4.8,0.,4.8,0.,4.8
1981-08-27 00:10:14.340 ,1,0,0.,4.8,0.,4.8,0.,4.8,0.,4.8
1981-08-27 00:10:19.140 ,1,0,0.,4.8,0.,4.8,0.,4.8,0.,4.8
1981-08-27 00:10:23.940 ,0,0,0.,4.8,0.,4.8,0.,4.8,0.,4.8
1981-08-27 00:10:28.740 ,0,0,0.,4.8,0.,4.8,0.,4.8,0.,4.8
1981-08-27 00:10:33.540 ,0,0,0.,4.8,0.,4.8,0.,4.8,0.,4.8
1981-08-27 00:10:38.340 ,0,0,0.,4.8,0.,4.8,0.,4.8,0.,4.8
1981-08-27 00:10:43.140 ,0,0,0.,4.8,0.,4.8,0.,4.8,0.,4.8
1981-08-27 00:10:47.940 ,0,0,0.,4.8,0.,4.8,0.,4.8,0.,4.8
1981-08-27 00:10:52.740 ,0,0,0.,4.8,0.,4.8,0.,4.8,0.,4.8
1981-08-27 00:10:57.540 ,0,0,0.,4.8,0.,4.8,0.,4.8,0.,4.8
1981-08-27 00:11:02.340 ,0,0,0.,4.8,0.,4.8,0.,4.8,0.,4.8
1981-08-27 00:11:07.140 ,0,0,0.,4.8,0.,4.8,0.,4.8,0.,4.8
1981-08-27 00:11:11.940 ,0,0,0.,4.8,0.,4.8,0.,4.8,0.,4.8
1981-08-27 00:11:16.740 ,0,0,0.,4.8,0.,4.8,0.,4.8,0.,4.8
1981-08-27 00:11:21.540 ,0,0,0.,4.8,0.,4.8,0.,4.8,0.,4.8
1981-08-27 00:11:26.340 ,0,0,0.,4.8,0.,4.8,0.,4.8,0.,4.8
1981-08-27 00:11:31.140 ,0,0,0.,4.8,0.,4.8,0.,4.8,0.,4.8
1981-08-27 00:11:35.940 ,0,0,0.,4.8,0.,4.8,0.,4.8,0.,4.8
1981-08-27 00:11:40.740 ,0,0,0.,4.8,0.,4.8,0.,4.8,0.,4.8
1981-08-27 00:11:45.540 ,0,0,0.,4.8,0.,4.8,0.,4.8,0.,4.8
1981-08-27 00:11:50.340 ,0,0,0.,4.8,0.,4.8,0.,4.8,0.,4.8
1981-08-27 00:11:55.140 ,0,0,0.,4.8,0.,4.8,0.,4.8,0.,4.8
1981-08-27 00:11:59.940 ,1,0,0.,4.8,0.,4.8,0.,4.8,0.,4.8
1981-08-27 00:12:04.740 ,1,0,0.,4.8,0.,4.8,0.,4.8,0.,4.8
1981-08-27 00:12:09.540 ,1,0,0.,4.8,0.,4.8,0.,4.8,0.,4.8
1981-08-27 00:12:14.340 ,1,0,0.,4.8,0.,4.8,0.,4.8,0.,4.8
1981-08-27 00:12:19.140 ,1,0,0.,4.8,0.,4.8,0.,4.8,0.,4.8
1981-08-27 00:12:23.940 ,1,0,0.,4.8,0.,4.8,0.,4.8,0.,4.8
1981-08-27 00:12:28.740 ,1,0,0.,4.8,0.,4.8,0.,4.8,0.,4.8
1981-08-27 00:12:33.540 ,1,0,0.,4.8,0.,4.8,0.,4.8,0.,4.8
1981-08-27 00:12:38.340 ,1,0,0.,4.8,0.,4.8,0.,4.8,0.,4.8
1981-08-27 00:12:43.140 ,1,0,0.,4.8,0.,4.8,0.,4.8,0.,4.8
1981-08-27 00:12:47.940 ,2,0,0.,4.8,0.,4.8,0.,4.8,0.,4.8
1981-08-27 00:12:52.740 ,2,0,0.,4.8,0.,4.8,0.,4.8,0.,4.8
1981-08-27 00:12:57.540 ,2,0,0.,4.8,0.,4.8,0.,4.8,0.,4.8
1981-08-27 00:13:02.340 ,2,0,0.,4.8,0.,4.8,0.,4.8,0.,4.8
1981-08-27 00:13:07.140 ,2,0,0.,4.8,0.,4.8,0.,4.8,0.,4.8
1981-08-27 00:13:11.940 ,2,0,0.,4.8,0.,4.8,0.,4.8,0.,4.8
1981-08-27 00:13:16.740 ,2,0,0.,4.8,0.,4.8,0.,4.8,0.,4.8
1981-08-27 00:13:21.540 ,2,0,0.,4.8,0.,4.8,0.,4.8,0.,4.8
1981-08-27 00:13:26.340 ,2,0,0.,4.8,0.,4.8,0.,4.8,0.,4.8
1981-08-27 00:13:31.140 ,2,0,0.,4.8,0.,4.8,0.,4.8,0.,4.8
1981-08-27 00:13:35.940 ,3,0,0.,4.8,0.,4.8,0.,4.8,0.,4.8
1981-08-27 00:13:40.740 ,3,0,0.,4.8,0.,4.8,0.,4.8,0.,4.8
1981-08-27 00:13:45.540 ,3,0,0.,4.8,0.,4.8,0.,4.8,0.,4.8
1981-08-27 00:13:50.340 ,3,0,0.,4.8,0.,4.8,0.,4.8,0.,4.8
1981-08-27 00:13:55.140 ,3,0,0.,4.8,0.,4.8,0.,4.8,0.,4.8
1981-08-27 00:13:59.940 ,3,0,0.,4.8,0.,4.8,0.,4.8,0.,4.8
1981-08-27 00:14:04.740 ,3,0,0.,4.8,0.,4.8,0.,4.8,0.,4.8
1981-08-27 00:14:09.540 ,3,0,0.,4.8,0.,4.8,0.,4.8,0.,4.8
1981-08-27 00:14:14.340 ,3,0,0.,4.8,0.,4.8,0.,4.8,0.,4.8
1981-08-27 00:14:19.140 ,3,0,0.,4.8,0.,4.8,0.,4.8,0.,4.8
1981-08-27 00:14:23.940 ,4,0,0.,4.8,0.,4.8,0.,4.8,0.,4.8
1981-08-27 00:14:28.740 ,4,0,0.,4.8,0.,4.8,0.,4.8,0.,4.8
1981-08-27 00:14:33.540 ,4,0,0.,4.8,0.,4.8,0.,4.8,0.,4.8
1981-08-27 00:14:38.340 ,4,0,0.,4.8,0.,4.8,0.,4.8,0.,4.8
1981-08-27 00:14:43.140 ,4,0,0.,4.8,0.,4.8,0.,4.8,0.,4.8
1981-08-27 00:14:47.940 ,4,0,0.,4.8,0.,4.8,0.,4.8,0.,4.8
1981-08-27 00:14:52.740 ,4,0,0.,4.8,0.,4.8,0.,4.8,0.,4.8
1981-08-27 00:14:57.540 ,4,0,0.,4.8,0.,4.8,0.,4.8,0.,4.8
1981-08-27 00:15:02.340 ,4,0,0.,4.8,0.,4.8,0.,4.8,0.,4.8
1981-08-27 00:15:07.140 ,4,0,0.,4.8,0.,4.8,0.,4.8,0.,4.8
1981-08-27 00:15:11.940 ,5,0,0.,4.8,0.,4.8,0.,4.8,0.,4.8
1981-08-27 00:15:16.740 ,5,0,0.,4.8,0.,4.8,0.,4.8,0.,4.8
1981-08-27 00:15:21.540 ,5,0,0.,4.8,0.,4.8,0.,4.8,0.,4.8
1981-08-27 00:15:26.340 ,5,0,0.,4.8,0.,4.8,0.,4.8,0.,4.8
1981-08-27 00:15:31.140 ,5,0,0.,4.8,0.,4.8,0.,4.8,0.,4.8
1981-08-27 00:15:35.940 ,5,0,0.,4.8,0.,4.8,0.,4.8,0.,4.8
1981-08-27 00:15:40.740 ,5,0,0.,4.8,0.,4.8,0.,4.8,0.,4.8
1981-08-27 00:15:45.540 ,5,0,0.,4.8,0.,4.8,0.,4.8,0.,4.8
1981-08-27 00:15:50.340 ,5,0,0.,4.8,0.,4.8,0.,4.8,0.,4.8
1981-08-27 00:15:55.140 ,5,0,0.,4.8,0.,4.8,0.,4.8,0.,4.8
1981-08-27 00:15:59.940 ,6,0,0.,4.8,0.,4.8,0.,4.8,0.,4.8
1981-08-27 00:16:04.740 ,6,0,0.,4.8,0.,4.8,0.,4.8,0.,4.8
1981-08-27 00:16:09.540 ,6,0,0.,4.8,0.,4.8,0.,4.8,0.,4.8
1981-08-27 00:16:14.340 ,6,0,0.,4.8,0.,4.8,0.,4.8,0.,4.8
1981-08-27 00:16:19.140 ,6,0,0.,4.8,0.,4.8,0.,4.8,0.,4.8
1981-08-27 00:16:23.940 ,6,0,0.,4.8,0.,4.8,0.,4.8,0.,4.8
1981-08-27 00:16:28.740 ,6,0,0.,4.8,0.,4.8,0.,4.8,0.,4.8
1981-08-27 00:16:33.540 ,6,0,0.,4.8,0.,4.8,0.,4.8,0.,4.8
1981-08-27 00:16:38.340 ,6,0,0.,4.8,0.,4.8,0.,4.8,0.,4.8
1981-08-27 00:16:43.140 ,6,0,0.,4.8,0.,4.8,0.,4.8,0.,4.8
1981-08-27 00:16:47.940 ,7,0,0.,4.8,0.,4.8,0.,4.8,0.,4.8
1981-08-27 00:16:52.740 ,7,0,0.,4.8,0.,4.8,0.,4.8,0.,4.8
1981-08-27 00:16:57.540 ,7,0,0.,4.8,0.,4.8,0.,4.8,0.,4.8
1981-08-27 00:17:02.340 ,7,0,0.,4.8,0.,4.8,0.,4.8,0.,4.8
1981-08-27 00:17:07.140 ,7,0,0.,4.8,0.,4.8,0.,4.8,0.,4.8
1981-08-27 00:17:11.940 ,7,0,0.,4.8,0.,4.8,0.,4.8,0.,4.8
1981-08-27 00:17:16.740 ,7,0,0.,4.8,0.,4.8,0.,4.8,0.,4.8
1981-08-27 00:17:21.540 ,7,0,0.,4.8,0.,4.8,0.,4.8,0.,4.8
1981-08-27 00:17:26.340 ,7,0,0.,4.8,0.,4.8,0.,4.8,0.,4.8
1981-08-27 00:17:31.140 ,7,0,0.,4.8,0.,4.8,0.,4.8,0.,4.8
1981-08-27 00:17:35.940 ,7,0,0.,4.8,0.,4.8,0.,4.8,0.,4.8
1981-08-27 00:17:40.740 ,7,0,0.,4.8,0.,4.8,0.,4.8,0.,4.8
1981-08-27 00:17:45.540 ,7,0,0.,4.8,0.,4.8,0.,4.8,0.,4.8
1981-08-27 00:17:50.340 ,7,0,0.,4.8,0.,4.8,0.,4.8,0.,4.8
1981-08-27 00:17:55.140 ,7,0,0.,4.8,0.,4.8,0.,4.8,0.,4.8
1981-08-27 00:17:59.940 ,7,0,0.,4.8,0.,4.8,0.,4.8,0.,4.8
1981-08-27 00:18:04.740 ,7,0,0.,4.8,0.,4.8,0.,4.8,0.,4.8
1981-08-27 00:18:09.540 ,7,0,0.,4.8,0.,4.8,0.,4.8,0.,4.8
1981-08-27 00:18:14.340 ,7,0,0.,4.8,0.,4.8,0.,4.8,0.,4.8
1981-08-27 00:18:19.140 ,7,0,0.,4.8,0.,4.8,0.,4.8,0.,4.8
1981-08-27 00:18:23.940 ,6,0,0.,4.8,0.,4.8,0.,4.8,0.,4.8
1981-08-27 00:18:28.740 ,6,0,0.,4.8,0.,4.8,0.,4.8,0.,4.8
1981-08-27 00:18:33.540 ,6,0,0.,4.8,0.,4.8,0.,4.8,0.,4.8
1981-08-27 00:18:38.340 ,6,0,0.,4.8,0.,4.8,0.,4.8,0.,4.8
1981-08-27 00:18:43.140 ,6,0,0.,4.8,0.,4.8,0.,4.8,0.,4.8
1981-08-27 00:18:47.940 ,6,0,0.,4.8,0.,4.8,0.,4.8,0.,4.8
1981-08-27 00:18:52.740 ,6,0,0.,4.8,0.,4.8,0.,4.8,0.,4.8
1981-08-27 00:18:57.540 ,6,0,0.,4.8,0.,4.8,0.,4.8,0.,4.8
1981-08-27 00:19:02.340 ,6,0,0.,4.8,0.,4.8,0.,4.8,0.,4.8
1981-08-27 00:19:07.140 ,6,0,0.,4.8,0.,4.8,0.,4.8,0.,4.8
1981-08-27 00:19:11.940 ,5,0,0.,4.8,0.,4.8,0.,4.8,0.,4.8
1981-08-27 00:19:16.740 ,5,0,0.,4.8,0.,4.8,0.,4.8,0.,4.8
1981-08-27 00:19:21.540 ,5,0,0.,4.8,0.,4.8,0.,4.8,0.,4.8
1981-08-27 00:19:26.340 ,5,0,0.,4.8,0.,4.8,0.,4.8,0.,4.8
1981-08-27 00:19:31.140 ,5,0,0.,4.8,0.,4.8,0.,4.8,0.,4.8
1981-08-27 00:19:35.940 ,5,0,0.,4.8,0.,4.8,0.,4.8,0.,4.8
1981-08-27 00:19:40.740 ,5,0,0.,4.8,0.,4.8,0.,4.8,0.,4.8
1981-08-27 00:19:45.540 ,5,0,0.,4.8,0.,4.8,0.,4.8,0.,4.8
1981-08-27 00:19:50.340 ,5,0,0.,4.8,0.,4.8,0.,4.8,0.,4.8
1981-08-27 00:19:55.140 ,5,0,0.,4.8,0.,4.8,0.,4.8,0.,4.8
1981-08-27 00:19:59.940 ,4,0,0.,4.8,0.,4.8,0.,4.8,0.,4.8
1981-08-27 00:20:04.740 ,4,0,0.,4.8,0.,4.8,0.,4.8,0.,4.8
1981-08-27 00:20:09.540 ,4,0,0.,4.8,0.,4.8,0.,4.8,0.,4.8
1981-08-27 00:20:14.340 ,4,0,0.,4.8,0.,4.8,0.,4.8,0.,4.8
1981-08-27 00:20:19.140 ,4,0,0.,4.8,0.,4.8,0.,4.8,0.,4.8
1981-08-27 00:20:23.940 ,4,0,0.,4.8,0.,4.8,0.,4.8,0.,4.8
1981-08-27 00:20:28.740 ,4,0,0.,4.8,0.,4.8,0.,4.8,0.,4.8
1981-08-27 00:20:33.540 ,4,0,0.,4.8,0.,4.8,0.,4.8,0.,4.8
1981-08-27 00:20:38.340 ,4,0,0.,4.8,0.,4.8,0.,4.8,0.,4.8
1981-08-27 00:20:43.140 ,4,0,0.,4.8,0.,4.8,0.,4.8,0.,4.8
1981-08-27 00:20:47.940 ,3,0,0.,4.8,0.,4.8,0.,4.8,0.,4.8
1981-08-27 00:20:52.740 ,3,0,0.,4.8,0.,4.8,0.,4.8,0.,4.8
1981-08-27 00:20:57.540 ,3,0,0.,4.8,0.,4.8,0.,4.8,0.,4.8
1981-08-27 00:21:02.340 ,3,0,0.,4.8,0.,4.8,0.,4.8,0.,4.8
1981-08-27 00:21:07.140 ,3,0,0.,4.8,0.,4.8,0.,4.8,0.,4.8
1981-08-27 00:21:11.940 ,3,0,0.,4.8,0.,4.8,0.,4.8,0.,4.8
1981-08-27 00:21:16.740 ,3,0,0.,4.8,0.,4.8,0.,4.8,0.,4.8
1981-08-27 00:21:21.540 ,3,0,0.,4.8,0.,4.8,0.,4.8,0.,4.8
1981-08-27 00:21:26.340 ,3,0,0.,4.8,0.,4.8,0.,4.8,0.,4.8
1981-08-27 00:21:31.140 ,3,0,0.,4.8,0.,4.8,0.,4.8,0.,4.8
1981-08-27 00:21:35.940 ,2,0,0.,4.8,0.,4.8,0.,4.8,0.,4.8
1981-08-27 00:21:40.740 ,2,0,0.,4.8,0.,4.8,0.,4.8,0.,4.8
1981-08-27 00:21:45.540 ,2,0,0.,4.8,0.,4.8,0.,4.8,0.,4.8
1981-08-27 00:21:50.340 ,2,0,0.,4.8,0.,4.8,0.,4.8,0.,4.8
1981-08-27 00:21:55.140 ,2,0,0.,4.8,0.,4.8,0.,4.8,0.,4.8
1981-08-27 00:21:59.940 ,2,0,0.,4.8,0.,4.8,0.,4.8,0.,4.8
1981-08-27 00:22:04.740 ,2,0,0.,4.8,0.,4.8,0.,4.8,0.,4.8
1981-08-27 00:22:09.540 ,2,0,0.,4.8,0.,4.8,0.,4.8,0.,4.8
1981-08-27 00:22:14.340 ,2,0,0.,4.8,0.,4.8,0.,4.8,0.,4.8
1981-08-27 00:22:19.140 ,2,0,0.,4.8,0.,4.8,0.,4.8,0.,4.8
1981-08-27 00:22:23.940 ,1,0,0.,4.8,0.,4.8,0.,4.8,0.,4.8
1981-08-27 00:22:28.740 ,1,0,0.,4.8,0.,4.8,0.,4.8,0.,4.8
1981-08-27 00:22:33.540 ,1,0,0.,4.8,0.,4.8,0.,4.8,0.,4.8
1981-08-27 00:22:38.340 ,1,0,0.,4.8,0.,4.8,0.,4.8,0.,4.8
1981-08-27 00:22:43.140 ,1,0,0.,4.8,0.,4.8,0.,4.8,0.,4.8
1981-08-27 00:22:47.940 ,1,0,0.,4.8,0.,4.8,0.,4.8,0.,4.8
1981-08-27 00:22:52.740 ,1,0,0.,4.8,0.,4.8,0.,4.8,0.,4.8
1981-08-27 00:22:57.540 ,1,0,0.,4.8,0.,4.8,0.,4.8,0.,4.8
1981-08-27 00:23:02.340 ,1,0,0.,4.8,0.,4.8,0.,4.8,0.,4.8
1981-08-27 00:23:07.140 ,1,0,0.,4.8,0.,4.8,0.,4.8,0.,4.8
1981-08-27 00:23:11.940 ,0,0,0.,4.8,0.,4.8,0.,4.8,0.,4.8
1981-08-27 00:23:16.740 ,0,0,0.,4.8,0.,4.8,0.,4.8,0.,4.8
1981-08-27 00:23:21.540 ,0,0,0.,4.8,0.,4.8,0.,4.8,0.,4.8
1981-08-27 00:23:26.340 ,0,0,0.,4.8,0.,4.8,0.,4.8,0.,4.8
1981-08-27 00:23:31.140 ,0,0,0.,4.8,0.,4.8,0.,4.8,0.,4.8
1981-08-27 00:23:35.940 ,0,0,0.,4.8,0.,4.8,0.,4.8,0.,4.8
1981-08-27 00:23:40.740 ,0,0,0.,4.8,0.,4.8,0.,4.8,0.,4.8
1981-08-27 00:23:45.540 ,0,0,0.,4.8,0.,4.8,0.,4.8,0.,4.8
1981-08-27 00:23:50.340 ,0,0,0.,4.8,0.,4.8,0.,4.8,0.,4.8
1981-08-27 00:23:55.140 ,0,0,0.,4.8,0.,4.8,0.,4.8,0.,4.8
1981-08-27 00:23:59.940 ,0,0,0.,4.8,0.,4.8,0.,4.8,0.,4.8
1981-08-27 00:24:04.740 ,0,0,0.,4.8,0.,4.8,0.,4.8,0.,4.8
1981-08-27 00:24:09.540 ,0,0,0.,4.8,0.,4.8,0.,4.8,0.,4.8
1981-08-27 00:24:14.340 ,0,0,0.,4.8,0.,4.8,0.,4.8,0.,4.8
1981-08-27 00:24:19.140 ,0,0,0.,4.8,0.,4.8,0.,4.8,0.,4.8
1981-08-27 00:24:23.940 ,0,0,0.,4.8,0.,4.8,0.,4.8,0.,4.8
1981-08-27 00:24:28.740 ,0,0,0.,4.8,0.,4.8,0.,4.8,0.,4.8
1981-08-27 00:24:33.540 ,0,0,0.,4.8,0.,4.8,0.,4.8,0.,4.8
1981-08-27 00:24:38.340 ,0,0,0.,4.8,0.,4.8,0.,4.8,0.,4.8
1981-08-27 00:24:43.140 ,0,0,0.,4.8,0.,4.8,0.,4.8,0.,4.8
1981-08-27 00:24:47.940 ,1,0,0.,4.8,0.,4.8,0.,4.8,0.,4.8
1981-08-27 00:24:52.740 ,1,0,0.,4.8,0.,4.8,0.,4.8,0.,4.8
1981-08-27 00:24:57.540 ,1,0,0.,4.8,0.,4.8,0.,4.8,0.,4.8
1981-08-27 00:25:02.340 ,1,0,0.,4.8,0.,4.8,0.,4.8,0.,4.8
1981-08-27 00:25:07.140 ,1,0,0.,4.8,0.,4.8,0.,4.8,0.,4.8
1981-08-27 00:25:11.940 ,1,0,0.,4.8,0.,4.8,0.,4.8,0.,4.8
1981-08-27 00:25:16.740 ,1,0,0.,4.8,0.,4.8,0.,4.8,0.,4.8
1981-08-27 00:25:21.540 ,1,0,0.,4.8,0.,4.8,0.,4.8,0.,4.8
1981-08-27 00:25:26.340 ,1,0,0.,4.8,0.,4.8,0.,4.8,0.,4.8
1981-08-27 00:25:31.140 ,1,0,0.,4.8,0.,4.8,0.,4.8,0.,4.8
1981-08-27 00:25:35.940 ,2,0,0.,4.8,0.,4.8,0.,4.8,0.,4.8
1981-08-27 00:25:40.740 ,2,0,0.,4.8,0.,4.8,0.,4.8,0.,4.8
1981-08-27 00:25:45.540 ,2,0,0.,4.8,0.,4.8,0.,4.8,0.,4.8
1981-08-27 00:25:50.340 ,2,0,0.,4.8,0.,4.8,0.,4.8,0.,4.8
1981-08-27 00:25:55.140 ,2,0,0.,4.8,0.,4.8,0.,4.8,0.,4.8
1981-08-27 00:25:59.940 ,2,0,0.,4.8,0.,4.8,0.,4.8,0.,4.8
1981-08-27 00:26:04.740 ,2,0,0.,4.8,0.,4.8,0.,4.8,0.,4.8
1981-08-27 00:26:09.540 ,2,0,0.,4.8,0.,4.8,0.,4.8,0.,4.8
1981-08-27 00:26:14.340 ,2,0,0.,4.8,0.,4.8,0.,4.8,0.,4.8
1981-08-27 00:26:19.140 ,2,0,0.,4.8,0.,4.8,0.,4.8,0.,4.8
1981-08-27 00:26:23.940 ,3,0,0.,4.8,0.,4.8,0.,4.8,0.,4.8
1981-08-27 00:26:28.740 ,3,0,0.,4.8,0.,4.8,0.,4.8,0.,4.8
1981-08-27 00:26:33.540 ,3,0,0.,4.8,0.,4.8,0.,4.8,0.,4.8
1981-08-27 00:26:38.340 ,3,0,0.,4.8,0.,4.8,0.,4.8,0.,4.8
1981-08-27 00:26:43.140 ,3,0,0.,4.8,0.,4.8,0.,4.8,0.,4.8
1981-08-27 00:26:47.940 ,3,0,0.,4.8,0.,4.8,0.,4.8,0.,4.8
1981-08-27 00:26:52.740 ,3,0,0.,4.8,0.,4.8,0.,4.8,0.,4.8
1981-08-27 00:26:57.540 ,3,0,0.,4.8,0.,4.8,0.,4.8,0.,4.8
1981-08-27 00:27:02.340 ,3,0,0.,4.8,0.,4.8,0.,4.8,0.,4.8
1981-08-27 00:27:07.140 ,3,0,0.,4.8,0.,4.8,0.,4.8,0.,4.8
1981-08-27 00:27:11.940 ,4,0,0.,4.8,0.,4.8,0.,4.8,0.,4.8
1981-08-27 00:27:16.740 ,4,0,0.,4.8,0.,4.8,0.,4.8,0.,4.8
1981-08-27 00:27:21.540 ,4,0,0.,4.8,0.,4.8,0.,4.8,0.,4.8
1981-08-27 00:27:26.340 ,4,0,0.,4.8,0.,4.8,0.,4.8,0.,4.8
1981-08-27 00:27:31.140 ,4,0,0.,4.8,0.,4.8,0.,4.8,0.,4.8
1981-08-27 00:27:35.940 ,4,0,0.,4.8,0.,4.8,0.,4.8,0.,4.8
1981-08-27 00:27:40.740 ,4,0,0.,4.8,0.,4.8,0.,4.8,0.,4.8
1981-08-27 00:27:45.540 ,4,0,0.,4.8,0.,4.8,0.,4.8,0.,4.8
1981-08-27 00:27:50.340 ,4,0,0.,4.8,0.,4.8,0.,4.8,0.,4.8
1981-08-27 00:27:55.140 ,4,0,0.,4.8,0.,4.8,0.,4.8,0.,4.8
1981-08-27 00:27:59.940 ,5,0,0.,4.8,0.,4.8,0.,4.8,0.,4.8
1981-08-27 00:28:04.740 ,5,0,0.,4.8,0.,4.8,0.,4.8,0.,4.8
1981-08-27 00:28:09.540 ,5,0,0.,4.8,0.,4.8,0.,4.8,0.,4.8
1981-08-27 00:28:14.340 ,5,0,0.,4.8,0.,4.8,0.,4.8,0.,4.8
1981-08-27 00:28:19.140 ,5,0,0.,4.8,0.,4.8,0.,4.8,0.,4.8
1981-08-27 00:28:23.940 ,5,0,0.,4.8,0.,4.8,0.,4.8,0.,4.8
1981-08-27 00:28:28.740 ,5,0,0.,4.8,0.,4.8,0.,4.8,0.,4.8
1981-08-27 00:28:33.540 ,5,0,0.,4.8,0.,4.8,0.,4.8,0.,4.8
1981-08-27 00:28:38.340 ,5,0,0.,4.8,0.,4.8,0.,4.8,0.,4.8
1981-08-27 00:28:43.140 ,5,0,0.,4.8,0.,4.8,0.,4.8,0.,4.8
1981-08-27 00:28:47.940 ,6,0,0.,4.8,0.,4.8,0.,4.8,0.,4.8
1981-08-27 00:28:52.740 ,6,0,0.,4.8,0.,4.8,0.,4.8,0.,4.8
1981-08-27 00:28:57.540 ,6,0,0.,4.8,0.,4.8,0.,4.8,0.,4.8
1981-08-27 00:29:02.340 ,6,0,0.,4.8,0.,4.8,0.,4.8,0.,4.8
1981-08-27 00:29:07.140 ,6,0,0.,4.8,0.,4.8,0.,4.8,0.,4.8
1981-08-27 00:29:11.940 ,6,0,0.,4.8,0.,4.8,0.,4.8,0.,4.8
1981-08-27 00:29:16.740 ,6,0,0.,4.8,0.,4.8,0.,4.8,0.,4.8
1981-08-27 00:29:21.540 ,6,0,0.,4.8,0.,4.8,0.,4.8,0.,4.8
1981-08-27 00:29:26.340 ,6,0,0.,4.8,0.,4.8,0.,4.8,0.,4.8
1981-08-27 00:29:31.140 ,6,0,0.,4.8,0.,4.8,0.,4.8,0.,4.8
1981-08-27 00:29:35.940 ,7,0,0.,4.8,0.,4.8,0.,4.8,0.,4.8
1981-08-27 00:29:40.740 ,7,0,0.,4.8,0.,4.8,0.,4.8,0.,4.8
1981-08-27 00:29:45.540 ,7,0,0.,4.8,0.,4.8,0.,4.8,0.,4.8
1981-08-27 00:29:50.340 ,7,0,0.,4.8,0.,4.8,0.,4.8,0.,4.8
1981-08-27 00:29:55.140 ,7,0,0.,4.8,0.,4.8,0.,4.8,0.,4.8
1981-08-27 00:29:59.940 ,7,0,0.,4.8,0.,4.8,0.,4.8,0.,4.8
1981-08-27 00:30:04.740 ,7,0,0.,4.8,0.,4.8,0.,4.8,0.,4.8
1981-08-27 00:30:09.540 ,7,0,0.,4.8,0.,4.8,0.,4.8,0.,4.8
1981-08-27 00:30:14.340 ,7,0,0.,4.8,0.,4.8,0.,4.8,0.,4.8
1981-08-27 00:30:19.140 ,7,0,0.,4.8,0.,4.8,0.,4.8,0.,4.8
1981-08-27 00:30:23.940 ,7,0,0.,4.8,0.,4.8,0.,4.8,0.,4.8
1981-08-27 00:30:28.740 ,7,0,0.,4.8,0.,4.8,0.,4.8,0.,4.8
1981-08-27 00:30:33.540 ,7,0,0.,4.8,0.,4.8,0.,4.8,0.,4.8
1981-08-27 00:30:38.340 ,7,0,0.,4.8,0.,4.8,0.,4.8,0.,4.8
1981-08-27 00:30:43.140 ,7,0,0.,4.8,0.,4.8,0.,4.8,0.,4.8
1981-08-27 00:30:47.940 ,7,0,0.,4.8,0.,4.8,0.,4.8,0.,4.8
1981-08-27 00:30:52.740 ,7,0,0.,4.8,0.,4.8,0.,4.8,0.,4.8
1981-08-27 00:30:57.540 ,7,0,0.,4.8,0.,4.8,0.,4.8,0.,4.8
1981-08-27 00:31:02.340 ,7,0,0.,4.8,0.,4.8,0.,4.8,0.,4.8
1981-08-27 00:31:07.140 ,7,0,0.,4.8,0.,4.8,0.,4.8,0.,4.8
1981-08-27 00:31:11.940 ,6,0,0.,4.8,0.,4.8,0.,4.8,0.,4.8
1981-08-27 00:31:16.740 ,6,0,0.,4.8,0.,4.8,0.,4.8,0.,4.8
1981-08-27 00:31:21.540 ,6,0,0.,4.8,0.,4.8,0.,4.8,0.,4.8
1981-08-27 00:31:26.340 ,6,0,0.,4.8,0.,4.8,0.,4.8,0.,4.8
1981-08-27 00:31:31.140 ,6,0,0.,4.8,0.,4.8,0.,4.8,0.,4.8
1981-08-27 00:31:35.940 ,6,0,0.,4.8,0.,4.8,0.,4.8,0.,4.8
1981-08-27 00:31:40.740 ,6,0,0.,4.8,0.,4.8,0.,4.8,0.,4.8
1981-08-27 00:31:45.540 ,6,0,0.,4.8,0.,4.8,0.,4.8,0.,4.8
1981-08-27 00:31:50.340 ,6,0,0.,4.8,0.,4.8,0.,4.8,0.,4.8
1981-08-27 00:31:55.140 ,6,0,0.,4.8,0.,4.8,0.,4.8,0.,4.8
1981-08-27 00:31:59.940 ,5,0,0.,4.8,0.,4.8,0.,4.8,0.,4.8
1981-08-27 00:32:04.740 ,5,0,0.,4.8,0.,4.8,0.,4.8,0.,4.8
1981-08-27 00:32:09.540 ,5,0,0.,4.8,0.,4.8,0.,4.8,0.,4.8
1981-08-27 00:32:14.340 ,5,0,0.,4.8,0.,4.8,0.,4.8,0.,4.8
1981-08-27 00:32:19.140 ,5,0,0.,4.8,0.,4.8,0.,4.8,0.,4.8
1981-08-27 00:32:23.940 ,5,0,0.,4.8,0.,4.8,0.,4.8,0.,4.8
1981-08-27 00:32:28.740 ,5,0,0.,4.8,0.,4.8,0.,4.8,0.,4.8
1981-08-27 00:32:33.540 ,5,0,0.,4.8,0.,4.8,0.,4.8,0.,4.8
1981-08-27 00:32:38.340 ,5,0,0.,4.8,0.,4.8,0.,4.8,0.,4.8
1981-08-27 00:32:43.140 ,5,0,0.,4.8,0.,4.8,0.,4.8,0.,4.8
1981-08-27 00:32:47.940 ,4,0,0.,4.8,0.,4.8,0.,4.8,0.,4.8
1981-08-27 00:32:52.740 ,4,0,0.,4.8,0.,4.8,0.,4.8,0.,4.8
1981-08-27 00:32:57.540 ,4,0,0.,4.8,0.,4.8,0.,4.8,0.,4.8
1981-08-27 00:33:02.340 ,4,0,0.,4.8,0.,4.8,0.,4.8,0.,4.8
1981-08-27 00:33:07.140 ,4,0,0.,4.8,0.,4.8,0.,4.8,0.,4.8
1981-08-27 00:33:11.940 ,4,0,0.,4.8,0.,4.8,0.,4.8,0.,4.8
1981-08-27 00:33:16.740 ,4,0,0.,4.8,0.,4.8,0.,4.8,0.,4.8
1981-08-27 00:33:21.540 ,4,0,0.,4.8,0.,4.8,0.,4.8,0.,4.8
1981-08-27 00:33:26.340 ,4,0,0.,4.8,0.,4.8,0.,4.8,0.,4.8
1981-08-27 00:33:31.140 ,4,0,0.,4.8,0.,4.8,0.,4.8,0.,4.8
1981-08-27 00:33:35.940 ,3,0,0.,4.8,0.,4.8,0.,4.8,0.,4.8
1981-08-27 00:33:40.740 ,3,0,0.,4.8,0.,4.8,0.,4.8,0.,4.8